Powrót do katalogu

STARLINK-6317

AktywnyŁącznośćVLEO
NORAD 56526·PAYLOAD·🇺🇸 United States

Wystrzelony May 14, 2023 z Cape Canaveral Space Force Station

Loading…

Następne Przeloty (najbliższe 24 godziny)

TLE

ŚwieżeSource: CelesTrak SupGP

Epoka: Sep 14, 2026, 21:45 UTC

1 56526C 23065Z   26257.90673611  .00025638  00000+0  92949-3 0  2571
2 56526  43.0020 224.2656 0001655 259.0820  95.8085 15.27534460    18

Śledź STARLINK-6317 w czasie rzeczywistym z AllMySat

Download on the App Store